2023/01/24 00:00:00, 7.4, 0.3
2023/01/24 00:10:00, 7.3, 0.5
2023/01/24 00:20:00, 7.4, 0.4
2023/01/24 00:30:00, 7.4, 0.2
2023/01/24 00:40:00, 7.3, 0.6
2023/01/24 00:50:00, 7.3, 0.4
2023/01/24 01:00:00, 7.3, 0.5
2023/01/24 01:10:00, 7.3, 0.4
2023/01/24 01:20:00, 7.3, 0.3
2023/01/24 01:30:00, 7.3, 0.4
2023/01/24 01:40:00, 7.3, 0.3
2023/01/24 01:50:00, 7.3, 0.5
2023/01/24 02:00:00, 7.3, 0.2
2023/01/24 02:10:00, 7.3, 0.1
2023/01/24 02:20:00, 7.3, 0.2
2023/01/24 02:30:00, 7.3, 0.1
2023/01/24 02:40:00, 7.3, 0.6
2023/01/24 02:50:00, 7.3, 0.7
2023/01/24 03:00:00, 7.3, 0.3
2023/01/24 03:10:00, 7.3, 0.3
2023/01/24 03:20:00, 7.3, 0.4
2023/01/24 03:30:00, 7.3, 0.1
2023/01/24 03:40:00, 7.3, 0.2
2023/01/24 03:50:00, 7.3,-0.4
2023/01/24 04:00:00, 7.3,-0.2
2023/01/24 04:10:00, 7.3,-0.3
2023/01/24 04:20:00, 7.3,-0.4
2023/01/24 04:30:00, 7.3,-0.4
2023/01/24 04:40:00, 7.3,-0.4
2023/01/24 04:50:00, 7.3,-0.2
2023/01/24 05:00:00, 7.5,-0.1
2023/01/24 05:10:00, 8.1,-0.2
2023/01/24 05:20:00, 8.4,-0.2
2023/01/24 05:30:00, 8.4,-0.2
2023/01/24 05:40:00, 8.5,-0.6
2023/01/24 05:50:00, 8.6,-0.2
2023/01/24 06:00:00, 8.7,-0.3
2023/01/24 06:10:00, 8.6,-0.7
2023/01/24 06:20:00, 8.6,-0.2
2023/01/24 06:30:00, 8.6, 0.0
2023/01/24 06:40:00, 8.6,-0.2
2023/01/24 06:50:00, 8.6,-0.1
2023/01/24 07:00:00, 8.6,-0.4
2023/01/24 07:10:00, 9.0,-0.4
2023/01/24 07:20:00, 9.0,-0.3
2023/01/24 07:30:00, 9.2,-0.9
2023/01/24 07:40:00, 9.4,-1.2
2023/01/24 07:50:00, 9.3,-1.0
2023/01/24 08:00:00, 9.3,-1.0
2023/01/24 08:10:00, 9.4,-1.1
2023/01/24 08:20:00, 9.8,-1.1
2023/01/24 08:30:00,10.3,-1.2
2023/01/24 08:40:00,10.6,-1.7
2023/01/24 08:50:00,10.8,-1.2
2023/01/24 09:00:00,11.4,-1.4
2023/01/24 09:10:00,11.8,-1.7
2023/01/24 09:20:00,12.0,-1.9
2023/01/24 09:30:00,12.0,-1.8
2023/01/24 09:40:00,12.4,-2.3
2023/01/24 09:50:00,12.5,-2.3
2023/01/24 10:00:00,12.6,-2.4
2023/01/24 10:10:00,12.8,-2.5
2023/01/24 10:20:00,13.0,-2.7
2023/01/24 10:30:00,13.5,-2.8
2023/01/24 10:40:00,13.9,-2.4
2023/01/24 10:50:00,13.6,-2.8
2023/01/24 11:00:00,13.8,-2.8
2023/01/24 11:10:00,13.6,-2.7
2023/01/24 11:20:00,13.4,-2.5
2023/01/24 11:30:00,13.1,-2.8
2023/01/24 11:40:00,13.1,-3.0
2023/01/24 11:50:00,13.1,-3.0
2023/01/24 12:00:00,12.9,-3.6
2023/01/24 12:10:00,13.1,-3.3
2023/01/24 12:20:00,13.2,-3.2
2023/01/24 12:30:00,13.3,-3.9
2023/01/24 12:40:00,13.2,-3.6
2023/01/24 12:50:00,13.2,-4.6
2023/01/24 13:00:00,14.0,-4.8
2023/01/24 13:10:00,14.8,-5.3
2023/01/24 13:20:00,15.4,-5.3
2023/01/24 13:30:00,16.0,-5.2
2023/01/24 13:40:00,16.7,-6.1
2023/01/24 13:50:00,16.6,-5.6
2023/01/24 14:00:00,16.5,-5.0
2023/01/24 14:10:00,16.4,-5.2
2023/01/24 14:20:00,16.4,-5.4
2023/01/24 14:30:00,16.5,-5.2
2023/01/24 14:40:00,16.6,-5.6
2023/01/24 14:50:00,17.0,-6.1
2023/01/24 15:00:00,18.4,-6.2
2023/01/24 15:10:00,19.1,-6.5
2023/01/24 15:20:00,19.5,-6.1
2023/01/24 15:30:00,20.0,-6.0
2023/01/24 15:40:00,20.5,-6.2
2023/01/24 15:50:00,21.5,-6.3
2023/01/24 16:00:00,22.5,-6.5
2023/01/24 16:10:00,23.4,-6.5
2023/01/24 16:20:00,24.2,-6.4
2023/01/24 16:30:00,24.8,-7.1
2023/01/24 16:40:00,25.3,-7.1
2023/01/24 16:50:00,25.4,-6.9
2023/01/24 17:00:00,25.4,-6.9
2023/01/24 17:10:00,26.0,-7.0
2023/01/24 17:20:00,26.7,-7.3
2023/01/24 17:30:00,27.3,-7.1
2023/01/24 17:40:00,27.6,-6.9
2023/01/24 17:50:00,28.7,-6.9
2023/01/24 18:00:00,29.3,-7.5
2023/01/24 18:10:00,29.8,-7.2
2023/01/24 18:20:00,30.4,-7.4
2023/01/24 18:30:00,30.8,-7.7
2023/01/24 18:40:00,31.3,-7.6
2023/01/24 18:50:00,31.5,-7.8
2023/01/24 19:00:00,31.3,-7.4
2023/01/24 19:10:00,31.2,-7.4
2023/01/24 19:20:00,31.2,-7.4
2023/01/24 19:30:00,31.4,-7.2
2023/01/24 19:40:00,31.4,-7.5
2023/01/24 19:50:00,31.4,-7.5
2023/01/24 20:00:00,31.8,-7.3
2023/01/24 20:10:00,32.5,-7.9
2023/01/24 20:20:00,33.2,-7.5
2023/01/24 20:30:00,34.7,-7.7
2023/01/24 20:40:00,35.4,-7.8
2023/01/24 20:50:00,36.3,-7.9
2023/01/24 21:00:00,37.8,-8.4
2023/01/24 21:10:00,39.7,-7.4
2023/01/24 21:20:00,41.6,-7.7
2023/01/24 21:30:00,43.5,-7.2
2023/01/24 21:40:00,45.3,-7.3
2023/01/24 21:50:00,47.3,-7.4
2023/01/24 22:00:00,48.3,-7.8
2023/01/24 22:10:00,48.8,-7.3
2023/01/24 22:20:00,49.7,-7.4
2023/01/24 22:30:00,51.8,-7.7
2023/01/24 22:40:00,53.6,-7.3
2023/01/24 22:50:00,54.5,-7.4
2023/01/24 23:00:00,55.5,-7.3
2023/01/24 23:10:00,58.0,-7.2
2023/01/24 23:20:00,59.9,-7.1
2023/01/24 23:30:00,61.6,-7.3
2023/01/24 23:40:00,63.2,-7.6
2023/01/24 23:50:00,65.0,-7.4
